Weather History for Monett, MO

Change the Weather History Date:

Thursday, January 17, 2013

  Actual Average (KJLN) Record (KJLN)
Temperature  
Mean Temperature 35 °F 35 °F  
Max Temperature 42 °F 45 °F 68 °F (1952)
Min Temperature 28 °F 25 °F -7 °F (1978)
Degree Days  
Heating Degree Days 30 30  
Month to date heating degree days 510  
Since 1 July heating degree days 2127  
Cooling Degree Days 0 0  
Month to date cooling degree days 0  
Year to date cooling degree days 0  
Moisture  
Dew Point 26 °F    
Average Humidity 74    
Maximum Humidity 100    
Minimum Humidity 57    
Precipitation  
Precipitation 0.00 in 0.06 in 1.47 in (2004)
Month to date precipitation 1.13  
Year to date precipitation 1.13  
Sea Level Pressure  
Sea Level Pressure 30.35 in    
Wind  
Wind Speed 6 mph (NNW)    
Max Wind Speed 15 mph    
Max Gust Speed 21 mph    
Visibility 10 miles    
Events      
T = Trace of Precipitation, MM = Missing Value Source: NWS Daily Summary

Daily Weather History Graph

Daily Weather History Graph

Search for Another Location

Airport:

Trip Planner

Search our weather history database for the weather conditions in past years. The results will help you decide how hot, cold, wet, or windy it might be!

Date:

Astronomy

Jan. 17, 2013 Rise Set
Actual Time 7:27 AM CST 5:25 PM CST
Civil Twilight 6:59 AM CST 5:53 PM CST
Nautical Twilight 6:27 AM CST 6:25 PM CST
Astronomical Twilight 5:56 AM CST 6:56 PM CST
Moon 10:45 AM CST (1/17) No Moon Set
Length of Visible Light 10h 54m
Length of Day
9h 58m
Waxing Crescent, 38% of the Moon is Illuminated
Jan 17
Waxing Crescent
Jan 18
First Quarter
Jan 26
Full
Feb 3
Last Quarter
Feb 10
New

Hourly Weather History & Observations

Time (CST) Temp. Windchill Dew Point Humidity Pressure Visibility Wind Dir Wind Speed Gust Speed Precip Events Conditions
12:15 AM 30.2 °F 24.3 °F 19.4 °F 64% 30.16 in 10.0 mi South 5.8 mph - N/A   Clear
12:55 AM 30.2 °F 24.3 °F 19.4 °F 64% 30.18 in 10.0 mi SSW 5.8 mph - N/A   Clear
1:15 AM 30.2 °F 24.3 °F 19.4 °F 64% 30.19 in 10.0 mi SSW 5.8 mph - N/A   Clear
1:35 AM 30.2 °F 24.3 °F 19.4 °F 64% 30.19 in 10.0 mi South 5.8 mph - N/A   Clear
1:55 AM 30.2 °F 24.3 °F 19.4 °F 64% 30.19 in 10.0 mi SSW 5.8 mph - N/A   Clear
2:15 AM 30.2 °F 24.3 °F 19.4 °F 64% 30.20 in 10.0 mi SSW 5.8 mph - N/A   Clear
2:35 AM 32.0 °F 27.5 °F 19.4 °F 60% 30.20 in 10.0 mi SSW 4.6 mph - N/A   Clear
2:55 AM 30.2 °F 26.7 °F 19.4 °F 64% 30.20 in 10.0 mi WSW 3.5 mph - N/A   Clear
3:15 AM 30.2 °F 26.7 °F 19.4 °F 64% 30.21 in 10.0 mi NW 3.5 mph - N/A   Clear
3:35 AM 30.2 °F 24.3 °F 19.4 °F 64% 30.22 in 10.0 mi West 5.8 mph - N/A   Clear
3:55 AM 30.2 °F 25.4 °F 19.4 °F 64% 30.22 in 10.0 mi West 4.6 mph - N/A   Clear
4:15 AM 28.4 °F 23.3 °F 19.4 °F 69% 30.23 in 10.0 mi WNW 4.6 mph - N/A   Clear
4:35 AM 30.2 °F 26.7 °F 19.4 °F 64% 30.23 in 10.0 mi WNW 3.5 mph - N/A   Clear
4:55 AM 28.4 °F 24.6 °F 21.2 °F 74% 30.24 in 10.0 mi NW 3.5 mph - N/A   Clear
5:15 AM 28.4 °F 23.3 °F 21.2 °F 74% 30.25 in 10.0 mi NW 4.6 mph - N/A   Clear
5:35 AM 30.2 °F 25.4 °F 23.0 °F 75% 30.25 in 10.0 mi NW 4.6 mph - N/A   Clear
5:55 AM 28.4 °F 22.2 °F 23.0 °F 80% 30.26 in 10.0 mi NNW 5.8 mph - N/A   Clear
6:15 AM 30.2 °F 24.3 °F 24.8 °F 80% 30.27 in 10.0 mi North 5.8 mph - N/A   Clear
6:35 AM 30.2 °F 21.9 °F 26.6 °F 86% 30.28 in 10.0 mi NNW 9.2 mph - N/A   Clear
6:55 AM 30.2 °F 22.6 °F 26.6 °F 86% 30.30 in 10.0 mi North 8.1 mph - N/A   Clear
7:15 AM 30.2 °F 21.9 °F 28.4 °F 93% 30.30 in 10.0 mi North 9.2 mph - N/A   Clear
7:35 AM 30.2 °F 21.3 °F 28.4 °F 93% 30.31 in 10.0 mi North 10.4 mph - N/A   Clear
7:55 AM 32.0 °F 24.2 °F 28.4 °F 87% 30.32 in 10.0 mi North 9.2 mph - N/A   Clear
8:15 AM 32.0 °F 24.2 °F 30.2 °F 93% 30.33 in 10.0 mi North 9.2 mph - N/A   Clear
8:55 AM 32.0 °F 23.0 °F 30.2 °F 93% 30.35 in 10.0 mi North 11.5 mph - N/A   Scattered Clouds
9:15 AM 32.0 °F 23.0 °F 30.2 °F 93% 30.37 in 10.0 mi North 11.5 mph 20.7 mph N/A   Overcast
9:35 AM 32.0 °F 21.6 °F 32.0 °F 100% 30.38 in 10.0 mi North 15.0 mph 18.4 mph N/A   Overcast
9:55 AM 32.0 °F 24.2 °F 32.0 °F 100% 30.39 in 7.0 mi North 9.2 mph - N/A   Overcast
10:15 AM 32.0 °F 23.6 °F 32.0 °F 100% 30.39 in 10.0 mi North 10.4 mph - N/A   Overcast
10:35 AM 33.8 °F 26.4 °F 32.0 °F 93% 30.40 in 10.0 mi North 9.2 mph - N/A   Overcast
10:55 AM 35.6 °F 29.2 °F 32.0 °F 87% 30.40 in 10.0 mi North 8.1 mph - N/A   Mostly Cloudy
11:15 AM 37.4 °F 30.8 °F 32.0 °F 81% 30.40 in 10.0 mi North 9.2 mph - N/A   Scattered Clouds
11:35 AM 37.4 °F 30.8 °F 32.0 °F 81% 30.40 in 10.0 mi NNW 9.2 mph - N/A   Clear
11:55 AM 39.2 °F 33.0 °F 32.0 °F 75% 30.39 in 10.0 mi NNW 9.2 mph - N/A   Clear
12:15 PM 41.0 °F 33.1 °F 30.2 °F 65% 30.40 in 10.0 mi NNW 15.0 mph - N/A   Clear
12:35 PM 41.0 °F 33.1 °F 30.2 °F 65% 30.40 in 10.0 mi North 15.0 mph 19.6 mph N/A   Clear
12:55 PM 41.0 °F 33.5 °F 28.4 °F 61% 30.40 in 10.0 mi North 13.8 mph - N/A   Clear
1:15 PM 41.0 °F 34.3 °F 30.2 °F 65% 30.39 in 10.0 mi North 11.5 mph 20.7 mph N/A   Clear
1:35 PM 41.0 °F 34.7 °F 30.2 °F 65% 30.39 in 10.0 mi North 10.4 mph - N/A   Clear
1:55 PM 41.0 °F 34.3 °F 28.4 °F 61% 30.39 in 10.0 mi NNE 11.5 mph - N/A   Clear
2:15 PM 42.8 °F 38.0 °F 28.4 °F 57% 30.39 in 10.0 mi NNE 8.1 mph - N/A   Clear
2:35 PM 42.8 °F 37.5 °F 28.4 °F 57% 30.39 in 10.0 mi NNE 9.2 mph - N/A   Clear
2:55 PM 42.8 °F 38.6 °F 28.4 °F 57% 30.39 in 10.0 mi North 6.9 mph - N/A   Clear
3:15 PM 42.8 °F 38.0 °F 28.4 °F 57% 30.40 in 10.0 mi NNW 8.1 mph - N/A   Clear
3:35 PM 42.8 °F 38.0 °F 28.4 °F 57% 30.40 in 10.0 mi North 8.1 mph - N/A   Clear
3:55 PM 42.8 °F 38.0 °F 28.4 °F 57% 30.40 in 10.0 mi North 8.1 mph - N/A   Clear
4:35 PM 41.0 °F 36.4 °F 28.4 °F 61% 30.41 in 10.0 mi North 6.9 mph - N/A   Clear
4:55 PM 41.0 °F 37.1 °F 28.4 °F 61% 30.42 in 10.0 mi North 5.8 mph - N/A   Clear
5:15 PM 39.2 °F 37.0 °F 28.4 °F 65% 30.42 in 10.0 mi North 3.5 mph - N/A   Clear
5:35 PM 37.4 °F 32.8 °F 28.4 °F 70% 30.43 in 10.0 mi North 5.8 mph - N/A   Clear
5:55 PM 37.4 °F 34.9 °F 28.4 °F 70% 30.44 in 10.0 mi North 3.5 mph - N/A   Clear
6:35 PM 35.6 °F - 26.6 °F 70% 30.44 in 10.0 mi Calm Calm - N/A   Clear
6:55 PM 35.6 °F - 26.6 °F 70% 30.44 in 10.0 mi Calm Calm - N/A   Clear
7:15 PM 35.6 °F - 26.6 °F 70% 30.44 in 10.0 mi Calm Calm - N/A   Clear
7:35 PM 32.0 °F - 26.6 °F 80% 30.45 in 10.0 mi Calm Calm - N/A   Clear
7:55 PM 33.8 °F - 26.6 °F 75% 30.45 in 10.0 mi Calm Calm - N/A   Clear
8:15 PM 33.8 °F - 26.6 °F 75% 30.45 in 10.0 mi Calm Calm - N/A   Clear
8:35 PM 33.8 °F - 26.6 °F 75% 30.45 in 10.0 mi Calm Calm - N/A   Clear
8:55 PM 32.0 °F - 28.4 °F 87% 30.45 in 10.0 mi Calm Calm - N/A   Clear
9:15 PM 32.0 °F - 26.6 °F 80% 30.45 in 10.0 mi Calm Calm - N/A   Clear
9:35 PM 32.0 °F 28.7 °F 26.6 °F 80% 30.45 in 10.0 mi NE 3.5 mph - N/A   Clear
9:55 PM 32.0 °F 28.7 °F 26.6 °F 80% 30.45 in 10.0 mi East 3.5 mph - N/A   Clear
11:15 PM 32.0 °F 26.4 °F 26.6 °F 80% 30.45 in 10.0 mi SE 5.8 mph - N/A   Clear
11:35 PM 28.4 °F 23.3 °F 24.8 °F 86% 30.46 in 10.0 mi SE 4.6 mph - N/A   Clear
11:55 PM 28.4 °F 24.6 °F 24.8 °F 86% 30.46 in 10.0 mi SSE 3.5 mph - N/A   Clear